Location: ??????
(41.3164°N, 22.6615°E)
Time: 18:54:43
(UTC+00:00)

ZACube-1 - Pass Details

Date: 01 July 2022
Orbit: 582 x 661 km, 97.6° (Epoch: 07 August)

Event Time Altitude Azimuth Distance (km) Brightness Sun altitude
Rises 02:11:54 0° 15° (NNE) 2,950 ? -8.1°
Reaches altitude 10° 02:14:07 10° 18° (NNE) 2,047 ? -7.7°
Maximum altitude 02:18:34 65° 101° (E) 717 ? -7.1°
Drops below altitude 10° 02:23:03 10° 183° (S) 2,064 ? -6.4°
Sets 02:25:17 0° 187° (S) 2,976 ? -6.1°
